Location: Oklahoma City
(35.4680°N, 97.5160°W)
Time: 02:08:54
(UTC-05:00)

ISS - All Passes

Search period start: 22 August 2017 00:00
Search period end: 01 September 2017 00:00
Orbit: 401 x 408 km, 51.6° (Epoch: 22 August)

Date Brightness Start Highest point End Pass type
(mag) Time Alt. Az. Time Alt. Az. Time Alt. Az.
22 Aug - 09:13:10 10° S 09:15:39 20° SE 09:18:09 10° E daylight
22 Aug - 10:48:59 10° WSW 10:51:59 32° NW 10:54:58 10° NNE daylight
22 Aug - 15:44:02 10° N 15:45:10 11° NNE 15:46:16 10° NE daylight
22 Aug - 17:18:52 10° NW 17:22:07 73° NE 17:25:22 10° SE daylight
23 Aug - 09:56:23 10° WSW 09:59:38 64° NW 10:02:54 10° NE daylight
23 Aug - 11:35:48 10° NW 11:36:39 11° NNW 11:37:30 10° N daylight
23 Aug - 16:26:46 10° NNW 16:29:48 35° NE 16:32:49 10° ESE daylight
23 Aug - 18:03:47 10° W 18:06:04 18° SW 18:08:21 10° S daylight
24 Aug - 09:04:09 10° SW 09:07:22 57° SE 09:10:36 10° NE daylight
24 Aug - 10:41:56 10° WNW 10:44:05 16° NNW 10:46:15 10° NNE daylight
24 Aug - 15:34:51 10° NNW 15:37:22 20° NNE 15:39:53 10° E daylight
24 Aug - 17:10:53 10° WNW 17:13:56 37° SW 17:16:57 10° SSE daylight
25 Aug - 08:12:23 10° S 08:15:11 26° SE 08:17:58 10° ENE daylight
25 Aug - 09:48:46 10° W 09:51:36 26° NW 09:54:26 10° NNE daylight
25 Aug - 14:43:11 10° N 14:44:50 13° NNE 14:46:28 10° NE daylight
25 Aug - 16:18:25 10° NW 16:21:42 85° SW 16:24:57 10° SE daylight
26 Aug - 07:21:32 10° SSE 07:23:03 13° SE 07:24:35 10° E daylight
26 Aug - 08:55:59 10° WSW 08:59:11 49° NW 09:02:24 10° NE daylight
26 Aug - 15:26:12 10° NW 15:29:22 44° NE 15:32:29 10° ESE daylight
26 Aug - 17:03:46 10° W 17:05:32 14° SW 17:07:17 10° SSW daylight
27 Aug - 08:03:35 10° SW 08:06:51 77° SE 08:10:08 10° NE daylight
27 Aug - 09:41:51 10° WNW 09:43:40 14° NNW 09:45:30 10° N daylight
27 Aug - 14:34:11 10° NNW 14:36:56 24° NNE 14:39:39 10° E daylight
27 Aug - 16:10:31 10° WNW 16:13:23 28° SW 16:16:14 10° SSE daylight
28 Aug - 07:11:36 10° SSW 07:14:36 33° SE 07:17:36 10° ENE daylight
28 Aug - 08:48:29 10° W 08:51:06 22° NNW 08:53:46 10° NNE daylight
28 Aug - 13:42:22 10° N 13:44:23 15° NNE 13:46:23 10° ENE daylight
28 Aug - 15:17:54 10° NW 15:21:08 64° SW 15:24:21 10° SE daylight
29 Aug - 06:20:16 10° S 06:22:24 16° SE 06:24:33 10° E visible
29 Aug - 07:55:32 10° WSW 07:58:38 38° NW 08:01:45 10° NNE daylight
29 Aug - 12:51:26 10° NNE 12:51:44 10° NNE 12:52:02 10° NNE daylight
29 Aug - 14:25:34 10° NW 14:28:48 57° NE 14:32:00 10° ESE daylight
29 Aug - 16:04:05 10° WSW 16:04:52 11° SW 16:05:39 10° SW daylight
30 Aug - 07:02:58 10° SW 07:06:14 81° NW 07:09:32 10° NE daylight
30 Aug - 08:41:45 10° NW 08:43:09 12° NNW 08:44:33 10° N daylight
30 Aug - 13:33:26 10° NNW 13:36:21 29° NE 13:39:15 10° E daylight
30 Aug - 15:10:05 10° WNW 15:12:42 22° SW 15:15:18 10° S daylight
31 Aug - 06:10:46 10° SSW 06:13:55 44° SE 06:17:04 10° ENE visible
31 Aug - 07:48:07 10° WNW 07:50:31 19° NNW 07:52:56 10° NNE daylight
31 Aug - 12:41:29 10° NNW 12:43:48 18° NNE 12:46:06 10° ENE daylight
31 Aug - 14:17:17 10° WNW 14:20:27 48° SW 14:23:35 10° SSE daylight
